Helicity
84 68 61 25 116 106 91 63 29 97 92 36 74 135 133 128 121 128 129 141 140 91 128 131 86 75 108 111 79 46 19 -6 8 2 18 19 31 40 50 47 42 58 70 81
117 60 52 181 93 69 61 46 41 127 71 20 69 83 136 154 154 122 153 159 112 147 146 135 76 103 113 110 84 28 -21 1 15 23 44 51 57 61 63 62 71 77 74 67
59 118 167 70 72 65 47 31 21 36 97 22 47 82 187 158 199 150 113 87 113 142 147 127 112 76 107 97 48 22 -8 19 36 68 56 54 43 22 45 68 70 72 80 67
89 82 130 75 69 57 58 41 97 95 57 1 76 11 121 189 147 134 98 81 126 153 132 124 83 89 106 77 31 25 34 51 53 30 50 23 64 109 108 104 90 91 89 64
57 103 98 86 66 66 90 129 90 47 36 6 25 33 127 169 142 122 77 109 122 161 129 123 88 89 96 59 23 40 44 53 67 63 70 64 108 103 114 121 109 92 81 61
48 74 73 67 34 87 92 109 70 41 27 33 12 7 142 135 80 95 80 80 121 138 133 119 92 92 103 50 46 54 54 73 84 81 90 108 129 136 124 106 105 106 100 83
116 103 55 112 135 98 90 58 44 39 51 32 119 49 55 119 62 85 87 88 118 112 125 130 109 95 117 88 81 67 67 88 96 97 118 146 159 168 149 122 138 127 120 98
92 127 82 95 66 73 40 9 21 45 14 68 106 33 137 91 49 24 101 89 113 121 105 114 118 85 113 99 91 82 103 115 113 122 150 181 173 164 170 168 157 144 123 106
32 40 35 53 27 -6 15 19 -11 31 30 84 37 86 49 81 73 45 80 103 134 122 123 101 112 94 119 107 110 123 122 143 140 148 152 187 197 193 204 177 148 137 107 88
31 69 71 77 45 37 41 27 70 54 85 53 23 47 108 78 72 52 69 69 101 101 121 114 115 135 123 123 143 139 137 185 170 166 156 180 217 201 190 170 161 140 112 99
46 49 81 48 26 43 55 24 26 32 21 83 86 81 96 114 72 53 25 50 69 102 112 112 138 129 113 153 193 163 174 192 177 175 166 189 208 201 181 176 164 146 117 102
35 44 40 10 111 87 16 16 28 76 85 76 114 63 63 78 76 71 47 44 63 85 99 115 142 148 154 189 208 201 196 201 199 188 166 183 206 194 172 174 172 142 117 102
66 79 98 120 82 75 67 44 0 50 92 78 62 61 60 68 64 65 42 52 73 89 108 150 156 156 157 193 234 261 251 249 181 164 191 189 193 177 161 174 167 132 113 107
104 84 64 102 130 58 45 53 49 45 88 42 46 28 40 47 65 67 68 40 49 129 117 139 154 160 163 187 264 298 312 303 247 167 173 189 188 164 157 172 161 139 118 109
98 60 91 61 101 146 96 105 63 74 54 55 41 53 31 54 53 82 72 71 41 103 175 144 148 149 155 221 247 326 314 270 180 224 197 214 190 164 174 174 164 140 118 114
100 112 96 102 71 88 87 62 67 50 51 58 65 60 46 60 114 115 89 87 56 49 127 138 142 136 157 223 240 249 263 272 256 218 232 235 194 171 171 170 161 135 111 98
118 118 82 50 55 74 53 28 28 26 59 82 65 71 143 101 75 52 51 51 50 54 70 125 154 151 164 191 174 213 208 235 226 212 239 225 200 178 175 167 152 124 108 109
118 103 109 87 77 42 85 80 75 94 92 93 98 64 100 91 59 36 42 45 48 61 71 90 130 156 155 165 166 179 205 228 208 221 231 229 208 190 175 161 143 124 120 114
136 114 146 107 61 68 47 32 30 25 24 54 73 86 80 76 56 59 73 51 41 47 72 92 132 144 147 195 209 173 199 208 207 221 227 234 223 191 172 151 132 132 131 124
138 184 123 136 131 79 127 99 37 39 28 80 113 89 112 111 124 150 57 41 36 50 79 111 129 140 125 183 118 163 177 189 195 203 231 246 231 192 173 155 146 144 141 136
147 150 139 132 165 136 147 118 79 47 76 129 99 110 124 122 102 77 83 70 62 67 80 95 93 85 99 119 120 118 149 166 178 225 245 256 242 201 180 180 166 154 146 152
102 134 139 115 150 104 62 156 83 123 140 96 88 85 106 81 59 77 75 62 68 73 83 83 94 107 107 102 112 126 143 161 200 237 259 280 257 228 209 190 168 161 162 162
107 133 108 119 102 167 125 132 42 89 85 95 87 98 106 72 55 59 75 60 51 77 97 108 106 117 116 113 126 102 131 195 217 237 267 276 265 255 237 197 189 194 173 187
57 87 74 110 124 178 141 95 142 106 102 83 65 51 59 46 62 56 62 66 70 69 79 115 105 116 126 142 138 133 179 228 267 288 297 308 279 274 250 231 215 217 203 215
97 77 94 87 105 145 136 106 84 72 62 68 65 44 56 61 58 69 74 61 62 66 77 92 133 106 114 167 163 184 222 291 343 306 258 292 327 291 264 242 217 218 198 199
101 120 143 126 91 94 89 84 81 91 97 77 67 75 75 80 80 87 99 78 73 66 80 97 123 132 127 180 183 199 230 331 397 371 383 323 327 296 262 251 294 267 308 261
Wind_Speed
35 42 38 38 28 39 35 34 30 26 31 31 29 20 19 17 17 17 16 16 19 21 23 26 27 28 31 33 34 33 35 35 34 32 32 33 36 38 42 45 47 50 53 56
39 45 36 30 30 32 31 30 25 27 29 29 21 19 18 15 14 13 14 14 17 19 22 25 26 26 28 29 30 31 31 30 31 31 33 34 35 38 40 43 48 51 53 55
47 48 26 28 30 31 29 27 26 30 24 24 25 13 12 13 13 13 13 16 20 21 24 24 25 25 26 26 26 26 28 29 30 31 32 34 34 32 36 40 45 50 52 55
49 38 33 29 32 29 32 24 31 26 27 28 10 40 6 8 11 9 14 22 21 23 24 25 25 23 22 23 23 25 26 28 28 28 30 30 34 35 38 40 42 46 50 53
44 34 31 31 31 27 36 25 28 28 25 34 23 29 15 8 8 9 19 22 23 24 25 24 22 20 20 19 21 22 23 25 26 27 28 30 34 34 36 37 40 43 45 51
45 35 30 33 31 30 29 29 29 28 28 29 21 18 10 5 6 10 19 21 23 24 26 23 20 20 18 19 19 19 20 22 25 27 29 32 32 34 36 38 39 43 45 47
44 42 38 36 27 22 24 23 21 21 20 28 24 26 27 19 19 10 20 24 25 26 24 20 17 16 16 15 14 15 16 20 23 26 29 32 34 36 36 38 42 43 44 45
48 50 37 28 30 23 22 17 19 25 31 22 21 21 20 20 18 13 16 21 24 26 20 16 13 13 13 11 10 11 14 18 21 24 28 31 33 35 36 40 41 42 42 42
47 39 18 31 28 34 26 22 25 41 38 36 26 22 20 20 20 14 14 19 23 25 21 16 13 13 11 10 8 7 11 15 18 22 26 31 34 35 38 38 39 40 39 39
32 24 24 24 29 31 39 19 24 27 33 27 21 29 24 16 15 12 12 18 22 23 18 15 14 11 10 9 6 5 7 12 15 19 22 28 32 34 35 37 38 38 38 40
35 20 21 17 23 20 22 22 21 30 26 26 27 25 25 22 16 12 10 13 16 18 14 16 12 10 9 7 4 1 4 9 12 15 20 26 31 33 34 34 35 36 37 39
28 33 21 24 23 33 16 18 17 27 25 27 34 32 32 29 27 12 8 4 9 12 16 16 12 8 8 7 5 3 2 5 11 16 20 25 30 31 32 33 35 35 36 38
23 32 22 30 28 27 29 26 24 28 33 27 28 34 26 26 22 24 17 12 2 9 14 14 13 10 9 7 6 3 1 6 12 16 17 22 27 30 31 32 33 34 36 38
33 35 33 44 37 31 23 27 32 35 36 40 36 36 31 28 26 20 18 18 11 6 11 14 13 11 10 9 6 3 3 6 9 14 16 22 26 28 30 32 33 34 36 39
34 38 38 25 29 31 29 33 35 43 45 45 46 47 46 52 56 47 40 35 21 7 10 14 14 13 11 9 7 5 5 4 6 13 13 21 25 28 30 32 34 35 37 39
32 37 34 44 42 44 49 49 52 53 55 58 55 56 61 51 49 41 36 29 24 13 9 13 15 15 16 13 11 9 7 7 10 11 17 21 24 28 30 33 34 35 36 37
36 35 38 48 39 46 57 55 61 64 54 52 58 57 54 56 50 40 32 29 25 21 11 11 15 16 15 14 13 12 11 9 11 14 18 20 24 28 31 32 33 35 36 38
37 39 39 45 39 52 46 44 46 49 51 45 46 46 48 53 54 49 43 38 31 27 17 11 9 12 14 12 12 12 10 11 13 17 19 20 24 28 32 33 34 35 36 38
42 40 44 46 48 55 50 35 36 35 39 30 36 38 40 45 47 39 38 41 38 34 25 16 9 8 8 9 8 10 10 11 15 19 19 22 25 30 32 33 34 34 36 40
31 40 37 40 48 51 37 27 25 34 53 31 27 31 36 42 43 41 48 47 42 36 29 21 13 8 7 6 7 9 12 15 18 18 22 23 26 30 32 32 34 35 37 39
33 36 43 40 49 49 40 22 30 47 47 24 24 28 35 44 51 55 53 47 40 34 27 20 14 9 7 5 6 11 14 18 18 20 22 24 27 30 31 31 32 34 37 35
31 37 44 42 51 63 22 16 35 37 31 29 29 33 42 49 54 53 50 49 37 29 24 19 16 13 10 8 10 15 18 18 19 21 23 24 26 28 29 30 32 34 36 38
39 31 37 31 40 34 13 25 27 40 40 30 38 47 56 62 55 55 51 47 38 28 24 20 18 17 16 14 16 19 19 18 19 21 24 24 26 27 28 30 32 37 34 40
33 36 43 35 32 32 30 32 33 33 37 44 53 60 61 62 53 54 55 47 43 32 28 25 24 23 22 21 20 22 22 20 20 23 24 25 27 28 27 29 33 35 37 40
40 31 38 41 38 38 39 39 41 47 55 61 57 54 54 54 59 59 58 50 48 42 34 30 29 30 30 26 26 25 25 22 24 25 27 28 28 27 28 28 32 32 33 36
38 44 46 50 44 48 51 49 49 54 56 54 59 64 64 63 65 61 59 54 49 47 39 37 35 36 35 32 31 31 28 26 27 29 30 30 30 26 27 31 36 33 36 38
Wind_Direction
315 315 313 324 334 332 333 333 336 353 0 353 355 18 34 50 68 85 82 76 81 83 75 79 76 68 68 68 70 66 67 68 61 50 41 35 24 26 23 19 17 13 8 7
309 306 312 326 329 329 330 329 330 346 352 346 1 6 34 50 59 78 85 84 94 89 92 87 84 77 77 74 72 69 69 55 49 44 32 30 32 29 27 23 17 14 13 11
296 319 321 318 320 321 323 321 326 330 348 338 342 336 28 47 53 72 90 111 120 111 109 104 99 92 86 80 76 67 63 57 47 46 45 40 41 42 31 24 18 14 12 10
294 298 299 303 309 316 316 317 325 328 330 338 19 337 331 75 78 103 123 135 127 123 117 114 106 100 93 85 78 67 60 48 49 53 44 39 25 22 20 19 18 16 12 10
292 289 292 292 301 309 314 328 323 321 320 321 326 337 356 86 62 104 141 137 136 131 127 122 110 103 95 86 81 68 57 48 47 41 36 30 21 24 21 20 18 15 15 11
280 301 295 292 296 302 313 314 316 316 316 313 320 320 332 16 56 102 137 141 138 135 131 124 113 105 91 87 77 59 53 44 36 31 27 19 18 16 14 13 13 11 10 9
277 275 287 296 293 292 296 301 312 314 308 319 348 334 346 16 8 108 139 146 144 144 139 129 119 116 104 96 74 55 42 30 27 25 20 16 13 11 11 10 8 7 7 7
272 274 265 276 270 289 276 274 298 312 321 325 344 333 345 350 11 45 130 145 147 150 146 139 127 126 119 106 83 55 36 23 23 21 20 16 13 11 9 6 7 6 7 7
283 274 277 277 269 269 280 265 289 304 310 313 328 340 347 355 8 49 113 145 155 160 158 158 149 140 129 126 114 59 37 23 19 17 15 11 9 7 4 5 6 7 8 8
290 271 280 278 277 272 280 280 293 298 307 307 314 316 336 357 15 57 110 151 160 166 168 167 161 151 143 140 124 69 31 15 16 17 13 10 8 6 5 4 5 5 6 4
284 285 281 271 270 275 274 280 284 306 301 309 313 338 356 3 11 25 101 143 164 173 180 178 174 172 168 151 141 62 28 23 22 20 11 6 5 4 3 4 4 3 2 1
275 278 270 269 290 293 282 286 271 292 300 300 309 303 331 337 346 19 32 107 168 190 187 184 188 190 185 173 164 167 116 21 9 5 2 1 1 2 2 1 1 1 359 359
272 276 275 280 288 286 286 289 289 292 298 299 304 319 339 348 358 345 349 348 255 204 198 194 195 198 193 185 178 173 287 342 353 352 355 356 358 358 358 358 358 359 356 355
270 278 274 279 290 285 268 285 283 284 289 293 298 305 321 331 339 348 343 339 326 263 214 203 204 206 208 204 202 205 287 323 337 342 348 350 352 354 354 355 355 355 353 351
273 272 277 297 297 300 291 286 283 282 286 290 298 299 308 313 313 317 323 326 327 269 221 214 219 224 222 222 221 245 253 286 316 328 331 341 347 350 351 351 350 351 350 348
275 277 283 282 289 287 284 283 282 282 285 287 293 298 300 315 317 321 325 327 327 313 251 231 225 220 219 229 236 244 260 269 315 321 331 339 343 345 346 346 346 346 346 346
273 277 283 282 287 288 284 283 282 282 286 291 292 299 307 308 315 321 326 329 329 327 305 245 228 221 225 234 238 252 256 286 304 316 329 334 338 339 341 342 343 343 343 343
272 274 281 282 289 284 291 299 299 295 293 293 300 305 310 312 314 317 318 319 323 329 325 306 263 241 231 236 246 251 266 285 300 311 322 329 332 335 337 338 338 340 341 340
272 273 277 281 281 286 294 299 307 308 305 309 306 312 319 323 325 335 332 327 324 326 328 322 305 274 246 245 253 242 268 284 298 306 315 322 328 331 333 334 335 338 339 338
279 278 278 282 284 286 300 315 322 320 301 309 318 321 326 329 327 335 333 332 330 331 332 332 330 316 287 282 232 256 274 287 296 304 313 321 326 328 330 332 334 337 337 338
273 276 275 281 286 291 298 306 317 304 306 328 325 325 326 322 323 322 326 329 331 333 337 344 343 333 319 299 266 277 286 290 302 311 315 320 324 327 330 332 335 336 336 339
271 276 279 283 285 286 294 296 304 315 322 320 319 321 321 321 322 324 325 326 328 330 333 336 335 328 322 303 292 293 290 300 306 310 315 318 323 327 331 332 334 335 336 337
275 282 286 292 296 310 307 311 300 312 315 317 314 313 312 314 316 319 321 324 324 319 319 320 319 317 314 301 294 294 298 301 304 309 314 319 323 326 329 330 332 332 336 336
275 295 285 297 296 303 301 302 313 313 311 312 312 310 311 312 314 315 316 317 320 314 306 306 306 303 301 298 292 294 299 296 297 305 309 317 319 324 326 330 331 332 333 334
281 292 289 289 295 304 303 304 305 305 306 306 309 312 313 312 311 312 312 311 315 313 305 300 298 297 297 297 296 296 293 288 291 299 306 310 319 318 322 325 329 331 333 335
280 279 284 293 296 295 298 303 305 305 308 310 310 309 310 309 308 310 308 310 311 311 306 299 297 298 297 295 295 295 291 285 289 293 305 305 314 316 319 324 329 333 334 338